星链-35417(STARLINK-35417)

导读

STARLINK-35417是美国(US)于2025年11月6日发射的星链卫星,星链计划是SpaceX推进的低轨卫星互联网星座项目。该卫星旨在为全球尤其是偏远等地区提供高速卫星互联网接入服务,是SpaceX大规模低轨星座部署中,补充组网的卫星之一,助力完善星链星座的覆盖能力与服务稳定性。

基本信息
目录编号:
66335
目录名称:
STARLINK-35417
国际标识:
2025-253S
轨道中心:
EARTH
卫星名称:
星链-35417
卫星全名:
星链-35417(STARLINK-35417)
卫星状态:
在轨 (已飞行302 天)
发射日期:
2025-11-06 UTC
国别 :
美国 (US)
星等 :
--
轨道信息
数据来源 国际轨道数据
星历时间: 2026-09-04T11:02:14+0800
16小时前
查看轨道信息
半长轴: 6861.179km
偏心率: 0.0001138
轨道倾角: 43.001°
近地点辐角 293.020°
升交点赤经 284.834°
平近点角 67.053°
近地点: 482.261km
远地点: 483.823km
周期: 94.267分钟
每日圈数: 15.275825
详细信息
固有亮度:
5
最大亮度:
2.5
卫星平台:
Starlink V1.0
覆盖范围:
全球
运营商:
太空探索技术公司
运营商所在国:
美国
制造商(研发单位):
太空探索技术公司
制造商所在国:
美国
使用方式:
暂无
卫星简介
Starlink 计划是 SpaceX 推出的全球卫星互联网项目,通过发射低轨道卫星,为全球尤其是偏远地区提供高速、低延迟的互联网服务。自 2019 年起,Starlink 已部署数千颗卫星,旨在缩小全球数字鸿沟,推动互联网普及。该项目还为军事、航空等行业提供通信支持,带来广泛经济效益。
2D轨道图
3D轨道图
轨道高度分析图
轨道倾角分析图
轨道综合分析图
查看轨道综合分析图
交会数据列表
事件ID 空间交会对象 最接近时刻(TCA) 交会距离 交会风险概率(CRP) 交会风险指数(CRI) 操作
CDM_260906-141706-633506-735721
2026-09-06T
14:17:57+0000
1.046 km
极远距离
4.7919E-6 低风险 0.49
CDM_260906-155206-633506-735721
2026-09-06T
15:52:06+0000
1.122 km
极远距离
3.779141E-6 低风险 0.47
CDM_260906-181306-633506-735721
2026-09-06T
18:13:20+0000
1.283 km
极远距离
2.441299E-6 低风险 0.43
CDM_260906-194706-633506-735721
2026-09-06T
19:47:29+0000
1.422 km
极远距离
1.775782E-6 低风险 0.4
CDM_260906-124306-633506-735721
2026-09-06T
12:43:48+0000
2.637 km
极远距离
4.544231E-7 极低风险 0.28
CDM_260906-163906-633506-735721
2026-09-06T
16:39:10+0000
2.749 km
极远距离
4.320483E-7 极低风险 0.28
CDM_260906-172606-633506-735721
2026-09-06T
17:26:15+0000
2.774 km
极远距离
4.271628E-7 极低风险 0.28
CDM_260906-212106-633506-735721
2026-09-06T
21:21:38+0000
2.988 km
极远距离
3.953334E-7 极低风险 0.27